When you browse on this site, cookies collect data to enhance your experience and personalize the content and advertising you see.
Visit our Privacy Policy to learn more. By continuing to use the site, you agree to this use of cookies and data.
  • In Austria
  • List of Countries
  • For 7 days
  • Water Temperature
  • Satellite Maps
  • Weather Map
  • News
  • Weather Widgets
  • user-avatar
    Login

    Hourly Weather Ilincy

    Today, 22 July, Monday

    Time Temperature Precipitation Wind Pressure Humidity
    00:00 +21°C° 0 mm 1 mps 742 mmHg 73%
    01:00 +21°C° 0 mm 1 mps 742 mmHg 74%
    02:00 +20°C° 0 mm 1 mps 742 mmHg 72%
    03:00 +19°C° 0 mm 2 mps 742 mmHg 75%
    04:00 +19°C° 0 mm 2 mps 742 mmHg 78%
    05:00 +18°C° 0 mm 2 mps 742 mmHg 80%
    06:00 +19°C° 0 mm 2 mps 742 mmHg 81%
    07:00 +21°C° 0 mm 3 mps 742 mmHg 81%
    08:00 +21°C° 0 mm 4 mps 742 mmHg 81%
    09:00 +22°C° 0 mm 4 mps 742 mmHg 80%
    10:00 +22°C° 0 mm 4 mps 742 mmHg 79%
    11:00 +23°C° 0 mm 4 mps 742 mmHg 78%
    12:00 +23°C° 0 mm 4 mps 742 mmHg 75%
    13:00 +25°C° 0 mm 4 mps 742 mmHg 72%
    14:00 +25°C° 0 mm 4 mps 742 mmHg 68%
    15:00 +25°C° 0.2 mm 4 mps 742 mmHg 69%
    16:00 +25°C° 0.2 mm 4 mps 742 mmHg 70%
    17:00 +25°C° 0.2 mm 4 mps 742 mmHg 70%
    18:00 +23°C° 0 mm 4 mps 742 mmHg 77%
    19:00 +21°C° 0 mm 3 mps 742 mmHg 83%
    20:00 +20°C° 0 mm 3 mps 742 mmHg 90%
    21:00 +19°C° 0 mm 3 mps 742 mmHg 91%
    22:00 +19°C° 0 mm 3 mps 742 mmHg 92%
    23:00 +18°C° 0 mm 3 mps 742 mmHg 94%

    Tomorrow, 23 July, Tuesday

    Time Temperature Precipitation Wind Pressure Humidity
    00:00 +17°C° 0 mm 3 mps 742 mmHg 93%
    01:00 +17°C° 0 mm 3 mps 742 mmHg 91%
    02:00 +16°C° 0 mm 3 mps 741 mmHg 90%
    03:00 +16°C° 0 mm 3 mps 741 mmHg 89%
    04:00 +14°C° 0 mm 3 mps 741 mmHg 88%
    05:00 +14°C° 0 mm 3 mps 741 mmHg 88%
    06:00 +17°C° 0 mm 3 mps 741 mmHg 85%
    07:00 +18°C° 0 mm 4 mps 741 mmHg 82%
    08:00 +19°C° 0 mm 4 mps 741 mmHg 79%
    09:00 +20°C° 0.1 mm 4 mps 741 mmHg 74%
    10:00 +21°C° 0.1 mm 4 mps 741 mmHg 69%
    11:00 +22°C° 0.1 mm 4 mps 741 mmHg 64%
    12:00 +22°C° 0.4 mm 4 mps 740 mmHg 63%
    13:00 +22°C° 0.4 mm 4 mps 740 mmHg 62%
    14:00 +23°C° 0.4 mm 4 mps 740 mmHg 61%
    15:00 +23°C° 0.2 mm 4 mps 740 mmHg 60%
    16:00 +23°C° 0.2 mm 4 mps 740 mmHg 60%
    17:00 +23°C° 0.2 mm 4 mps 740 mmHg 59%
    18:00 +21°C° 0 mm 4 mps 739 mmHg 66%
    19:00 +19°C° 0 mm 3 mps 739 mmHg 72%
    20:00 +17°C° 0 mm 3 mps 739 mmHg 78%
    21:00 +17°C° 0 mm 3 mps 739 mmHg 81%
    22:00 +16°C° 0 mm 3 mps 739 mmHg 84%
    23:00 +14°C° 0 mm 3 mps 739 mmHg 87%

    Day after tomorrow, 24 July, Wednesday

    Time Temperature Precipitation Wind Pressure Humidity
    00:00 +14°C° 0 mm 3 mps 739 mmHg 88%
    01:00 +14°C° 0 mm 3 mps 739 mmHg 89%
    02:00 +14°C° 0 mm 3 mps 739 mmHg 90%
    03:00 +14°C° 0 mm 4 mps 738 mmHg 88%
    04:00 +15°C° 0 mm 4 mps 738 mmHg 87%
    05:00 +15°C° 0 mm 4 mps 738 mmHg 86%
    06:00 +16°C° 0 mm 5 mps 738 mmHg 83%
    07:00 +17°C° 0 mm 5 mps 738 mmHg 81%
    08:00 +19°C° 0 mm 6 mps 738 mmHg 78%
    09:00 +21°C° 0 mm 6 mps 738 mmHg 74%
    10:00 +22°C° 0 mm 6 mps 738 mmHg 69%
    11:00 +23°C° 0 mm 7 mps 738 mmHg 65%
    12:00 +23°C° 0.1 mm 7 mps 738 mmHg 64%
    13:00 +24°C° 0.1 mm 7 mps 738 mmHg 64%
    14:00 +24°C° 0.1 mm 7 mps 738 mmHg 63%
    15:00 +24°C° 0.2 mm 7 mps 738 mmHg 64%
    16:00 +23°C° 0.2 mm 7 mps 738 mmHg 64%
    17:00 +23°C° 0.2 mm 7 mps 738 mmHg 65%
    18:00 +22°C° 0.1 mm 6 mps 738 mmHg 71%
    19:00 +20°C° 0.1 mm 5 mps 738 mmHg 76%
    20:00 +19°C° 0.1 mm 4 mps 738 mmHg 81%
    21:00 +18°C° 0 mm 4 mps 739 mmHg 83%
    22:00 +17°C° 0 mm 4 mps 739 mmHg 85%
    23:00 +17°C° 0 mm 4 mps 739 mmHg 87%

    25 July, Thursday

    Time Temperature Precipitation Wind Pressure Humidity
    00:00 +15°C° 0 mm 4 mps 739 mmHg 86%
    01:00 +15°C° 0 mm 5 mps 739 mmHg 85%
    02:00 +15°C° 0 mm 5 mps 739 mmHg 85%
    03:00 +15°C° 0 mm 5 mps 739 mmHg 85%
    04:00 +14°C° 0 mm 5 mps 739 mmHg 86%
    05:00 +14°C° 0 mm 5 mps 739 mmHg 86%
    06:00 +16°C° 0 mm 5 mps 740 mmHg 81%
    07:00 +17°C° 0 mm 6 mps 740 mmHg 76%
    08:00 +20°C° 0 mm 6 mps 740 mmHg 70%
    09:00 +21°C° 0 mm 6 mps 740 mmHg 67%
    10:00 +22°C° 0 mm 6 mps 740 mmHg 63%
    11:00 +23°C° 0 mm 6 mps 740 mmHg 59%
    12:00 +23°C° 0.7 mm 6 mps 740 mmHg 61%
    13:00 +23°C° 0.7 mm 6 mps 740 mmHg 63%
    14:00 +23°C° 0.7 mm 6 mps 740 mmHg 64%
    15:00 +23°C° 0.2 mm 6 mps 740 mmHg 64%
    16:00 +22°C° 0.2 mm 6 mps 740 mmHg 64%
    17:00 +22°C° 0.2 mm 6 mps 740 mmHg 64%
    18:00 +20°C° 0.3 mm 5 mps 740 mmHg 72%
    19:00 +19°C° 0.3 mm 4 mps 740 mmHg 81%
    20:00 +17°C° 0.3 mm 2 mps 740 mmHg 89%
    21:00 +17°C° 0 mm 3 mps 739 mmHg 88%
    22:00 +17°C° 0 mm 3 mps 739 mmHg 87%
    23:00 +17°C° 0 mm 3 mps 739 mmHg 86%

    26 July, Friday

    Time Temperature Precipitation Wind Pressure Humidity
    00:00 +17°C° 0.1 mm 4 mps 739 mmHg 87%
    01:00 +17°C° 0.1 mm 4 mps 739 mmHg 89%
    02:00 +15°C° 0.1 mm 5 mps 738 mmHg 90%
    03:00 +15°C° 0 mm 4 mps 738 mmHg 93%
    04:00 +14°C° 0 mm 4 mps 738 mmHg 95%
    05:00 +14°C° 0 mm 4 mps 738 mmHg 97%
    06:00 +15°C° 0 mm 4 mps 738 mmHg 93%
    07:00 +16°C° 0 mm 5 mps 738 mmHg 90%
    08:00 +17°C° 0 mm 5 mps 738 mmHg 86%
    09:00 +19°C° 0 mm 5 mps 738 mmHg 82%
    10:00 +20°C° 0 mm 5 mps 738 mmHg 79%
    11:00 +21°C° 0 mm 5 mps 739 mmHg 75%
    12:00 +22°C° 0.1 mm 6 mps 738 mmHg 74%
    13:00 +22°C° 0.1 mm 6 mps 738 mmHg 73%
    14:00 +23°C° 0.1 mm 6 mps 738 mmHg 71%
    15:00 +22°C° 0.1 mm 6 mps 738 mmHg 72%
    16:00 +22°C° 0.1 mm 5 mps 738 mmHg 73%
    17:00 +22°C° 0.1 mm 5 mps 737 mmHg 74%
    18:00 +20°C° 0 mm 4 mps 737 mmHg 80%
    19:00 +19°C° 0 mm 4 mps 737 mmHg 85%
    20:00 +18°C° 0 mm 3 mps 737 mmHg 91%
    21:00 +18°C° 0 mm 3 mps 737 mmHg 93%
    22:00 +17°C° 0 mm 3 mps 737 mmHg 94%
    23:00 +17°C° 0 mm 3 mps 737 mmHg 96%

    27 July, Saturday

    Time Temperature Precipitation Wind Pressure Humidity
    00:00 +17°C° 0 mm 4 mps 736 mmHg 96%
    01:00 +17°C° 0 mm 4 mps 736 mmHg 97%
    02:00 +17°C° 0 mm 4 mps 736 mmHg 97%
    03:00 +17°C° 0 mm 4 mps 736 mmHg 97%
    04:00 +17°C° 0 mm 4 mps 736 mmHg 97%
    05:00 +18°C° 0 mm 4 mps 736 mmHg 96%
    06:00 +17°C° 0 mm 5 mps 736 mmHg 94%
    07:00 +19°C° 0 mm 5 mps 736 mmHg 92%
    08:00 +19°C° 0 mm 5 mps 737 mmHg 89%
    09:00 +21°C° 0 mm 5 mps 737 mmHg 81%
    10:00 +23°C° 0 mm 4 mps 737 mmHg 72%
    11:00 +25°C° 0 mm 4 mps 737 mmHg 63%
    12:00 +26°C° 0.3 mm 4 mps 737 mmHg 63%
    13:00 +26°C° 0.3 mm 5 mps 737 mmHg 63%
    14:00 +26°C° 0.3 mm 5 mps 737 mmHg 62%
    15:00 +26°C° 0.7 mm 5 mps 737 mmHg 65%
    16:00 +26°C° 0.7 mm 5 mps 737 mmHg 67%
    17:00 +25°C° 0.7 mm 5 mps 737 mmHg 70%
    18:00 +23°C° 0 mm 4 mps 737 mmHg 76%
    19:00 +21°C° 0 mm 4 mps 737 mmHg 82%
    20:00 +20°C° 0 mm 3 mps 737 mmHg 88%
    21:00 +20°C° 0 mm 3 mps 737 mmHg 91%
    22:00 +19°C° 0 mm 3 mps 737 mmHg 93%
    23:00 +19°C° 0 mm 3 mps 737 mmHg 95%
    Show more